Regional Weather Roundup
Issued by NWS Sioux Falls, SD

Home | Current Version | Previous Version | Graphics & Text | Print | Product List | Glossary On
Versions: 1 2 3 4 5 6 7 8 9 10 11 12 13 14 15 16 17 18 19 20 21 22 23 24 25 26 27 28 29 30 31 32 33 34 35 36 37 38 39 40 41 42 43 44 45 46 47 48 49 50
000
ASUS43 KFSD 161510
RWRFSD

WEATHER ROUNDUP FOR SE SOUTH DAKOTA/SW MINNESOTA/NW IOWA
NATIONAL WEATHER SERVICE SIOUX FALLS SD
1000 AM CDT TUE SEP 16 2014

NOTE: "FAIR" INDICATES FEW OR NO CLOUDS BELOW 12,000 FEET WITH NO
SIGNIFICANT WEATHER AND OR OBSTRUCTIONS TO VISIBILITY.


SDZ038>040-050-052>070-161600-
SOUTHEAST SOUTH DAKOTA

CITY           SKY/WX    TMP DP  RH WIND       PRES   REMARKS
CHAMBERLAIN    SUNNY     58  47  66 S13G18    30.05F
HURON          SUNNY     56  44  64 S12G17    30.07F
MADISON        FAIR      54  46  76 SW15G23   30.14F
MITCHELL       SUNNY     54  46  74 MISG      30.11F
SIOUX FALLS    SUNNY     55  45  68 S12       30.16F
WINNER         FAIR      58  46  64 S16G25    30.03F
YANKTON        SUNNY     55  46  71 S10       30.16F
$$

MNZ071-072-080-081-089-090-097-098-161600-
SOUTHWEST MINNESOTA

CITY           SKY/WX    TMP DP  RH WIND       PRES   REMARKS
FAIRMONT       SUNNY     55  43  62 SW6       30.19F
JACKSON        SUNNY     55  43  62 SW9       30.19F
LUVERNE        SUNNY     52  50  93 S5        30.18F
MARSHALL       SUNNY     57  45  62 SW12      30.14F
MONTEVIDEO     SUNNY     57  46  67 W8        30.15S
PIPESTONE      SUNNY     54  45  71 SW10      30.16S
REDWOOD FALLS  SUNNY     56  45  66 SW10      30.16F
TRACY          SUNNY     56  46  68 SW8G16    30.16F
WINDOM         SUNNY     55  45  67 S8        30.18F
WORTHINGTON    SUNNY     54  45  71 SW8       30.19S
$$

IAZ001>003-012>014-020>022-031-032-NEZ013-014-SDZ071-161600-
NORTHWEST IOWA

CITY           SKY/WX    TMP DP  RH WIND       PRES   REMARKS
CHEROKEE       SUNNY     53  50  89 SW8       30.21S
DENISON        SUNNY     54  48  82 S7        30.21S
ESTHERVILLE    SUNNY     55  44  66 SW8       30.20S
LE MARS        SUNNY     54  48  82 S7        30.20F
ORANGE CITY    SUNNY     54  45  71 SW10      30.19F
SHELDON        SUNNY     52  46  82 S9        30.19S
SIOUX CITY     SUNNY     53  48  83 S5        30.21F
SPENCER        SUNNY     57  45  64 S9        30.20F
STORM LAKE     SUNNY     54  52  94 SW7       30.21S
$$

ABBREVIATIONS USED IN REMARKS
   TC - TEMPERATURE IN CELSIUS
  WCI - WIND CHILL INDEX
   HX - HEAT INDEX
  VSB - VISIBILITY




USA.gov is the U.S. government's official web portal to all federal, state and local government web resources and services.